Miscellaneous Local Product
Issued by NWS Hastings, NE

Home | Current Version | Previous Version | Graphics & Text | Print | Product List | Glossary On
Versions: 1 2 3 4 5 6 7 8 9 10 11 12 13 14 15 16 17 18 19 20 21 22 23 24 25 26 27 28 29 30 31 32 33 34 35 36 37 38 39 40 41 42 43 44 45 46 47 48 49 50
396
AXUS43 KGID 161302
MISGRI

GID CWA HOURLY WEATHER ROUNDUP
NATIONAL WEATHER SERVICE HASTINGS NE
700 AM CST TUE JAN 16 2018

NOTE: "FAIR" INDICATES FEW OR NO CLOUDS BELOW 12,000 FEET WITH NO
SIGNIFICANT WEATHER AND/OR OBSTRUCTIONS TO VISIBILITY.

...SOUTH CENTRAL NEBRASKA...

CITY           SKY/WX    TMP DP  RH WIND       PRES   REMARKS
GRAND ISLAND   CLOUDY     0  -5  79 NW14      30.72S WCI -19
KEARNEY        CLOUDY    -5 -12  72 N12       30.72R WCI -23
HASTINGS       MOCLDY    -2  -8  76 NW17      30.71S WCI -23
ORD            CLOUDY    -5 -11  75 NW15      30.72S WCI -26
YORK           CLEAR      0  -4  85 N9        30.73R WCI -16
AURORA         CLOUDY     1  -5  78 N14       30.71S WCI -18
LEXINGTON      CLEAR     -2 -10  69 NW9       30.70F WCI -18
HOLDREGE       CLOUDY    -3  -9  77 N12       30.70S WCI -21
HEBRON         CLOUDY    -2  -8  75 NW7       30.75S WCI -16

...NEBRASKA PANHANDLE...

CITY           SKY/WX    TMP DP  RH WIND       PRES   REMARKS
CHADRON        CLEAR    -14 -21  71 SW5       30.59F WCI -26
ALLIANCE       CLEAR    -18 -22  82 SW6       30.54F WCI -33
SCOTTSBLUFF    CLEAR    -10 -15  78 N3        30.55F
SIDNEY         CLEAR    -11 -15  82 W6        30.53F WCI -25

...WESTERN AND NORTH CENTRAL NEBRASKA...

CITY           SKY/WX    TMP DP  RH WIND       PRES   REMARKS
VALENTINE      CLEAR    -10 -17  71 SW7       30.67F WCI -25
AINSWORTH      CLEAR     -8 -14  76 NW8       30.67F WCI -25
ONEILL         CLOUDY    -4  -9  79 NW13      30.73S WCI -23
BROKEN BOW     CLEAR     -6 -15  65 NW10      30.67F WCI -24
IMPERIAL       CLEAR     -5 -10  79 NW10      30.64S WCI -23
NORTH PLATTE   CLEAR     -4 -13  65 NW13      30.68F WCI -23
MCCOOK         CLEAR     -3 -11  68 NW7       30.71R WCI -16

...EASTERN NEBRASKA...

CITY           SKY/WX    TMP DP  RH WIND       PRES   REMARKS
NORFOLK        CLOUDY    -2  -6  83 NW17      30.72S WCI -23
SO SIOUX CITY  CLOUDY    -4  -9  79 NW20      30.76R WCI -27
TEKAMAH        CLOUDY    -1  -8  72 NW12      30.76R WCI -18
COLUMBUS       CLOUDY    -2  -7  79 NW13      30.76R WCI -20
ALBION         CLOUDY     1  -5  76 NW17G25   30.71R WCI -19
OMAHA EPPLEY   MOCLDY    -2  -8  76 NW15      30.75R WCI -22
OFFUTT AFB     CLEAR     -3 -11  68 NW9       30.74R WCI -19
MILLARD        CLEAR     -1  -8  72 NW9       30.76R WCI -16
LINCOLN        MOCLDY    -1  -8  72 N8        30.77R WCI -15
NEBRASKA CITY  PTCLDY    -2  -8  76 N16       30.73R WCI -22
BEATRICE       CLOUDY     1  -5  73 N20       30.74S WCI -20
FALLS CITY     CLOUDY    -2  -8  76 NW12      30.74R WCI -20

...NORTHERN KANSAS...

CITY           SKY/WX    TMP DP  RH WIND       PRES   REMARKS
GOODLAND       CLEAR     -6 -10  83 NW7       30.61S WCI -20
HILL CITY      CLEAR     -2  -9  72 NW7       30.74R WCI -15
NORTON         SUNNY     -4 -11  71 W5        30.71  WCI -15
PHILLIPSBURG   CLEAR      0  -9  65 NW10G17   30.75F WCI -17
SMITH CENTER     N/A      0   9 100 NW14      30.75S WCI -19
BELOIT         CLEAR      0   9 100 NW8       30.77S WCI -15
HAYS           CLEAR     -1  -8  72 NW9       30.75R WCI -16
RUSSELL        CLEAR    N/A N/A N/A NW12      30.74R
CONCORDIA      CLEAR     -2  -8  76 NW9       30.75R WCI -18
SALINA         CLEAR      2  -6  69 NW12      30.78R WCI -15
TOPEKA         CLEAR     -2  -8  76 W7        30.77R WCI -15



USA.gov is the U.S. government's official web portal to all federal, state and local government web resources and services.